Weather History for Imperial, NE

Change the Weather History Date:

Sunday, May 12, 2013

  Actual Average Record
Temperature  
Mean Temperature 61 °F 58 °F  
Max Temperature 81 °F 72 °F 95 °F (1962)
Min Temperature 41 °F 45 °F 28 °F (1953)
Degree Days  
Heating Degree Days 4 7  
Month to date heating degree days 164 111  
Cooling Degree Days 0 1  
Month to date cooling degree days 0 8  
Year to date cooling degree days 2 9  
Growing Degree Days 11 (Base 50)    
Moisture  
Dew Point 40 °F    
Average Humidity 56    
Maximum Humidity 93    
Minimum Humidity 18    
Precipitation  
Precipitation 0.00 in 0.09 in 1.45 in (1920)
Sea Level Pressure  
Sea Level Pressure 30.07 in    
Wind  
Wind Speed 7 mph (East)    
Max Wind Speed 20 mph    
Max Gust Speed 25 mph    
Visibility 10 miles    
Events      
T = Trace of Precipitation, MM = Missing Value Source: NWS Daily Summary

Daily Weather History Graph

Daily Weather History Graph

Search for Another Location

Airport:

Trip Planner

Search our weather history database for the weather conditions in past years. The results will help you decide how hot, cold, wet, or windy it might be!

Date:

Astronomy

May. 12, 2013 Rise Set
Actual Time 5:32 AM MDT 7:53 PM MDT
Civil Twilight 5:01 AM MDT 8:24 PM MDT
Nautical Twilight 4:24 AM MDT 9:02 PM MDT
Astronomical Twilight 3:42 AM MDT 9:44 PM MDT
Moon 7:29 AM MDT (5/12) 10:22 PM MDT (5/12)
Length of Visible Light 15h 22m
Length of Day
14h 21m
Waxing Crescent, 7% of the Moon is Illuminated
May 12
Waxing Crescent
May 17
First Quarter
May 24
Full
May 31
Last Quarter
Jun 8
New

Hourly Weather History & Observations

Time (MDT) Temp. Windchill Dew Point Humidity Pressure Visibility Wind Dir Wind Speed Gust Speed Precip Events Conditions
12:53 AM 50.0 °F - 35.1 °F 57% 30.19 in 10.0 mi South 6.9 mph - N/A   Clear
1:53 AM 46.9 °F - 37.0 °F 68% 30.17 in 10.0 mi North 3.5 mph - N/A   Clear
2:53 AM 46.0 °F 43.9 °F 39.9 °F 79% 30.16 in 10.0 mi SW 4.6 mph - N/A   Clear
3:53 AM 43.0 °F - 39.9 °F 89% 30.15 in 10.0 mi Calm Calm - N/A   Overcast
4:53 AM 44.1 °F - 39.9 °F 85% 30.13 in 10.0 mi Calm Calm - N/A   Clear
5:53 AM 41.0 °F 38.0 °F 39.0 °F 93% 30.13 in 10.0 mi SE 4.6 mph - N/A   Clear
6:53 AM 46.0 °F 43.9 °F 42.1 °F 86% 30.11 in 10.0 mi South 4.6 mph - N/A   Clear
7:53 AM 52.0 °F - 44.1 °F 74% 30.13 in 10.0 mi Calm Calm - N/A   Clear
8:53 AM 59.0 °F - 44.1 °F 58% 30.12 in 10.0 mi NW 5.8 mph - N/A   Clear
9:53 AM 64.9 °F - 44.1 °F 47% 30.11 in 10.0 mi NNE 8.1 mph - N/A   Clear
10:53 AM 70.0 °F - 44.1 °F 39% 30.09 in 10.0 mi North 8.1 mph - N/A   Clear
11:53 AM 75.0 °F - 44.1 °F 33% 30.07 in 10.0 mi NNW 4.6 mph - N/A   Clear
12:53 PM 77.0 °F - 39.9 °F 26% 30.04 in 10.0 mi Variable 4.6 mph - N/A   Clear
1:53 PM 81.0 °F - 35.1 °F 19% 30.04 in 10.0 mi NNW 13.8 mph 23.0 mph N/A   Clear
2:53 PM 80.1 °F - 34.0 °F 19% 30.04 in 10.0 mi North 17.3 mph 21.9 mph N/A   Partly Cloudy
3:53 PM 81.0 °F - 34.0 °F 18% 30.02 in 10.0 mi North 11.5 mph - N/A   Clear
4:53 PM 79.0 °F - 33.1 °F 19% 30.01 in 10.0 mi NE 15.0 mph 18.4 mph N/A   Clear
5:53 PM 79.0 °F - 34.0 °F 20% 30.00 in 10.0 mi ENE 6.9 mph - N/A   Clear
6:53 PM 73.0 °F - 37.9 °F 28% 30.00 in 10.0 mi ESE 8.1 mph - N/A   Clear
7:53 PM 63.0 °F - 41.0 °F 45% 30.01 in 10.0 mi SE 9.2 mph - N/A   Clear
8:53 PM 57.9 °F - 41.0 °F 53% 30.01 in 10.0 mi SE 8.1 mph - N/A   Clear
9:53 PM 55.9 °F - 42.1 °F 60% 30.01 in 10.0 mi SSE 8.1 mph - N/A   Clear
10:53 PM 55.9 °F - 42.1 °F 60% 30.01 in 10.0 mi SSE 8.1 mph - N/A   Clear
11:53 PM 59.0 °F - 42.1 °F 53% 30.01 in 10.0 mi South 6.9 mph - N/A   Clear